Regional Weather Roundup
Issued by NWS Cleveland, OH

Home | Current Version | Previous Version | Text Only | Print | Product List | Glossary Off
Versions: 1 2 3 4 5 6 7 8 9 10 11 12 13 14 15 16 17 18 19 20 21 22 23 24 25 26 27 28 29 30 31 32 33 34 35 36 37 38 39 40 41 42 43 44 45 46 47 48 49 50

000
ASUS41 KCLE 191710
RWRCLE
OHIO REGIONAL WEATHER ROUNDUP
NATIONAL WEATHER SERVICE CLEVELAND, OH
100 PM EDT TUE SEP 19 2017

NOTE: "FAIR" INDICATES FEW OR NO CLOUDS BELOW 12,000 FEET WITH NO
SIGNIFICANT WEATHER AND/OR OBSTRUCTIONS TO VISIBILITY.

OHZ001>008-015>018-024>027-034-035-043-044-191800-
   NORTHWEST OHIO

CITY           SKY/WX    TMP DP  RH WIND       PRES   REMARKS
DEFIANCE       CLOUDY    71  66  84 SE8       29.98R
FINDLAY        LGT RAIN  71  67  87 E7        29.97F
TOLEDO EXPRESS CLOUDY    68  32  26 E6        29.98S
TOLEDO EXEC    LGT RAIN  69  67  93 E5        29.99S FOG
LIMA           LGT RAIN  72  68  87 SE5       29.98F
$$

OHZ009>014-019>023-028>033-038-089-191800-
   NORTHEAST OHIO

CITY           SKY/WX    TMP DP  RH WIND       PRES   REMARKS
CLE-HOPKINS    CLOUDY    77  64  64 S10       30.03S
CLE-LAKEFRONT  CLOUDY    74  65  73 N3        30.00S
CUY CO. ARPT   CLOUDY    79  64  61 N6        30.02S
LORAIN-ELYRIA  CLOUDY    73  62  68 CALM      30.02R
ASHTABULA      MOSUNNY   79  66  64 S8        30.03F
AKRON-CANTON   CLOUDY    79  62  56 W9        30.02F
WOOSTER        CLOUDY    75  65  70 S6        30.03F
MANSFIELD      CLOUDY    76  65  68 S8        30.02F
YOUNGSTOWN     CLOUDY    80  65  59 VRB5      30.03F
$$

OHZ042-051>053-060>062-070>072-077>081-191800-
  SOUTHWEST OHIO

CITY           SKY/WX    TMP DP  RH WIND       PRES   REMARKS
CINC-COVINGTON LGT RAIN  68  68 100 SW5       30.01F
CINC-LUNKEN    LGT RAIN  71  69  93 SW8       30.01F
HAMILTON       LGT RAIN  71  70  96 SW5       30.01F FOG
DAYTON         CLOUDY    71  67  87 S10       30.01F
WRIGHT-PAT AFB LGT RAIN  70  70 100 S9        30.00F
DAYTON GENERAL RAIN      69  67  93 S6        30.00F FOG
WILMINGTON     RAIN      68  68 100 S6        30.03S FOG
$$

OHZ036-037-039>041-045>050-054>059-063>069-073>076-082>088-191800-
  CENTRAL AND SOUTHEAST OHIO

CITY           SKY/WX    TMP DP  RH WIND       PRES   REMARKS
COLUMBUS       CLOUDY    76  67  73 S6        30.01S
OSU AIRPORT    LGT RAIN  75  67  76 SW12      30.01F
BOLTON FIELD   LGT RAIN  72  66  83 SW10      30.03S
RICKENBACK AFB CLOUDY    75  67  74 SW12G20   30.01S
NEWARK         CLOUDY    75  65  70 CALM      30.02R
MARION         CLOUDY    74  64  71 SW8       30.02F
LANCASTER      CLOUDY    75  65  70 SW7       30.02S
ZANESVILLE     CLOUDY    79  65  62 VRB5      30.02F
NEW PHILLY     NOT AVBL
$$




USA.gov is the U.S. government's official web portal to all federal, state and local government web resources and services.